HST 1 20580U 90037B 26120.15069886 .00007038 00000+0 22624-3 0 9994 2 20580 28.4757 48.7403 0001769 337.5229 22.5290 15.30208308781208 POLAR 1 23802U 96013A 26118.74260267 .00000005 00000+0 00000+0 0 9999 2 23802 79.8054 227.6254 6420817 210.7729 86.8948 1.29845833144212 SWAS 1 25560U 98071A 26120.03747603 .00004056 00000+0 26034-3 0 9996 2 25560 69.8978 351.6575 0007483 306.8003 53.2473 15.09287573490005 CXO 1 25867U 99040B 26121.77434247 .00000574 00000+0 00000+0 0 9994 2 25867 55.4326 117.9802 7910128 310.5568 359.9255 0.37807064 17145 XMM-NEWTON 1 25989U 99066A 26119.48249831 -.00000021 00000+0 00000+0 0 9993 2 25989 64.7331 283.6064 4688678 65.7859 0.1035 0.50130503 22768 TERRA 1 25994U 99068A 26120.21228450 .00000409 00000+0 92267-4 0 9998 2 25994 97.9496 171.6516 0002987 47.7879 352.9742 14.61063981402603 CLUSTER II-FM7 (SAMBA) 1 26410U 00041A 26119.05025564 .00002271 00000+0 00000+0 0 9994 2 26410 149.6805 42.4302 8992946 259.0060 0.6082 0.44823564 20095 CLUSTER II-FM8 (TANGO) 1 26464U 00045B 26121.13459255 .00002884 00000+0 00000+0 0 9997 2 26464 149.9674 43.7125 9000108 260.1784 0.5507 0.44400441 20080 ODIN 1 26702U 01007A 26120.06781199 .00053009 00000+0 56841-3 0 9990 2 26702 97.3956 158.3862 0001196 27.9930 332.1393 15.63662897381850 TIMED 1 26998U 01055B 26120.03536420 .00001257 00000+0 11798-3 0 9992 2 26998 74.0680 331.9664 0001578 206.0106 154.1000 14.95177402323626 CORIOLIS 1 27640U 03001A 26119.99892121 .00000129 00000+0 81447-4 0 9992 2 27640 98.7141 127.6174 0013880 356.8230 3.2856 14.19931181207388 SORCE 1 27651U 03004A 26119.85226953 .00003223 00000+0 24287-3 0 9992 2 27651 39.9896 177.3887 0016090 63.2553 296.9885 15.03446128264629 MOST 1 27843U 03031D 26119.98938052 .00000079 00000+0 56191-4 0 9995 2 27843 98.7061 128.3858 0010517 37.2007 322.9897 14.21312212183860 SCISAT 1 1 27858U 03036A 26119.94109447 .00000765 00000+0 10246-3 0 9992 2 27858 73.9291 267.1953 0007741 333.5794 26.4986 14.81392504224302 SWIFT 1 28485U 04047A 26120.28507262 .00048176 00000+0 47771-3 0 9999 2 28485 20.5521 193.1321 0002248 27.8307 332.2258 15.63972430179346 HINODE (SOLAR-B) 1 29479U 06041A 26120.01500266 .00000835 00000+0 15189-3 0 9995 2 29479 98.0575 136.8750 0018941 81.9533 278.3820 14.68552079 47805 SHIJIAN-6 02A (SJ-6 02A) 1 29505U 06046A 26120.25863340 .00004862 00000+0 25396-3 0 9996 2 29505 97.6403 160.9757 0001953 331.4099 28.7026 15.16385198 65007 SHIJIAN-6 02B (SJ-6 02B) 1 29506U 06046B 26120.29149396 .00001930 00000+0 15489-3 0 9994 2 29506 97.7144 149.6507 0010959 223.7262 136.3095 15.01230951 63559 FGRST (GLAST) 1 33053U 08029A 26120.29423920 .00003490 00000+0 12761-3 0 9990 2 33053 25.5809 176.9576 0008654 120.1641 239.9755 15.23687308988529 SDO 1 36395U 10005A 26119.44532009 -.00000055 00000+0 00000+0 0 9997 2 36395 34.5528 87.0758 0001072 28.9897 159.8676 1.00272896 59576 CRYOSAT 2 1 36508U 10013A 26120.25093713 .00000246 00000+0 60218-4 0 9990 2 36508 92.0294 265.6654 0002667 91.6662 268.4850 14.51907093851124 X-SAT 1 37389U 11015C 26120.27499395 .00000361 00000+0 17095-3 0 9991 2 37389 98.3481 99.5896 0015001 120.5005 239.7659 14.25192313780851 GCOM-W1 (SHIZUKU) 1 38337U 12025A 26120.09163179 .00000548 00000+0 13155-3 0 9995 2 38337 98.1998 61.3841 0001328 94.2754 276.3514 14.57124091742036 NUSTAR 1 38358U 12031A 26120.25002315 .00024631 00000+0 14809-2 0 9992 2 38358 6.0278 33.5715 0007086 123.2453 274.7778 15.08330443 5072 NEOSSAT 1 39089U 13009D 26120.26495543 .00000170 00000+0 73311-4 0 9997 2 39089 98.4169 301.4393 0011648 34.8467 325.3480 14.35809449689862 BRITE-AUSTRIA 1 39091U 13009F 26120.28737394 .00000192 00000+0 79780-4 0 9995 2 39091 98.3985 300.9111 0010714 29.5710 330.6081 14.36522389690175 IRIS 1 39197U 13033A 26120.01437364 .00001265 00000+0 15103-3 0 9994 2 39197 97.9365 319.4376 0025751 115.2510 245.1378 14.85783788693229 HISAKI (SPRINT-A) 1 39253U 13049A 26120.25689525 .00000139 00000+0 10198-3 0 9996 2 39253 29.7192 103.6868 0136596 348.3069 11.4349 13.55538510624919 CASSIOPE 1 39265U 13055A 26120.21050439 .00025049 -44739-6 29066-3 0 9994 2 39265 80.9126 124.8188 0302747 223.3364 134.3705 15.21948127660365 STSAT-3 1 39422U 13066G 26120.23237106 .00001887 00000+0 14661-3 0 9995 2 39422 97.6181 90.9293 0009225 177.9784 182.1480 15.02472293677006 SWARM B 1 39451U 13067A 26120.20732364 .00003437 00000+0 12365-3 0 9993 2 39451 87.7478 356.8872 0002425 94.7806 265.3720 15.28266954675912 SWARM A 1 39452U 13067B 26120.26403083 .00012250 00000+0 21831-3 0 9994 2 39452 87.3315 74.0247 0003666 89.2540 270.9141 15.49950352698825 SWARM C 1 39453U 13067C 26120.26396643 .00012300 00000+0 21919-3 0 9991 2 39453 87.3316 72.6057 0003665 89.3805 270.7875 15.49951568698781 BRITE-CA1 (TORONTO) 1 40020U 14033L 26120.27194046 .00001027 00000+0 16141-3 0 9996 2 40020 97.9664 250.1052 0079976 70.7549 290.2290 14.72606289635164 OCO 2 1 40059U 14035A 26120.15479607 .00000461 00000+0 11217-3 0 9996 2 40059 98.1995 62.1886 0001585 77.8295 282.3081 14.57149484629052 BRITE-PL2 (HEWELIUSZ) 1 40119U 14049B 26120.23371842 .00001959 00000+0 18715-3 0 9992 2 40119 97.9035 231.8856 0012771 268.1052 91.8705 14.94410075634283 MMS 1 1 40482U 15011A 26120.25002315 -.00000427 00000+0 00000+0 0 9997 2 40482 71.4743 349.4583 8361898 166.3762 88.5421 0.28341445 1365 MMS 2 1 40483U 15011B 26120.25002315 -.00000427 00000+0 00000+0 0 9998 2 40483 71.4778 349.4648 8361460 166.3759 88.5403 0.28341459 1362 MMS 3 1 40484U 15011C 26120.25002315 -.00000427 00000+0 00000+0 0 9999 2 40484 71.4770 349.4651 8361169 166.3777 88.5384 0.28340311 1369 MMS 4 1 40485U 15011D 26120.25002315 -.00000427 00000+0 00000+0 0 9990 2 40485 71.4745 349.4604 8360736 166.3847 88.5295 0.28340666 1361 ASTROSAT 1 40930U 15052A 26118.24030020 .00001821 00000+0 14027-3 0 9996 2 40930 5.9957 154.8367 0007584 39.2274 320.8403 14.82417667572402 DAMPE 1 41173U 15078A 26120.31697263 .00001641 00000+0 57952-4 0 9998 2 41173 97.4568 125.5520 0010299 243.4359 116.5826 15.30664171577224 PISAT 1 41784U 16059B 26119.98496311 .00001174 00000+0 20764-3 0 9999 2 41784 97.8186 122.5121 0029092 2.6780 357.4576 14.68895230512667 HXMT (HUIYAN) 1 42758U 17034A 26120.30604381 .00005237 00000+0 26086-3 0 9998 2 42758 43.0135 89.5627 0032078 203.7264 156.2107 15.18032054490380 FLYING LAPTOP 1 42831U 17042G 26120.32007969 .00002038 00000+0 16439-3 0 9997 2 42831 97.4468 277.7681 0017879 287.9896 71.9380 15.00834201479278 ZHANGHENG 1-01 (CSES-1) 1 43194U 18015C 26120.30559145 .00007835 00000+0 35789-3 0 9996 2 43194 97.6827 285.0219 0017810 72.3070 288.0108 15.20725617457363 SALSAT 1 46495U 20068K 26119.99234150 .00008776 00000+0 31318-3 0 9992 2 46495 97.8854 120.1513 0011649 109.1065 251.1436 15.29076272307998 IXPE 1 49954U 21121A 26120.25002315 .00012523 00000+0 69592-3 0 9993 2 49954 0.2322 320.0424 0006786 72.5424 287.8778 15.09801217 5420